Total_Precipitation_Accumulation
0.91 0.98 1.03 1.02 0.93 1.02 1.06 1.04 1.06 1.06 0.97 0.96 0.97 1.02 1.00 1.02 1.07 1.14 1.09 1.15 1.26 1.40 1.39 1.35 1.36 1.39 1.37 1.30 1.33 1.32 1.30 1.42 1.40 1.14 1.19 1.23 1.12 0.96 0.86 0.82 0.78 0.83 0.82
0.87 0.98 1.05 1.10 1.00 0.97 0.99 1.06 1.10 1.15 1.18 1.14 1.08 1.08 1.02 1.04 1.17 1.24 1.27 1.29 1.31 1.34 1.50 1.70 1.69 1.63 1.53 1.39 1.44 1.38 1.35 1.52 1.47 1.34 1.40 1.42 1.36 1.17 1.05 0.93 0.77 0.74 0.79
0.91 0.97 1.03 1.07 1.01 0.99 1.10 1.19 1.20 1.30 1.37 1.37 1.30 1.20 1.13 1.11 1.16 1.22 1.30 1.30 1.33 1.40 1.53 1.64 1.72 1.82 1.68 1.55 1.49 1.44 1.47 1.57 1.64 1.54 1.53 1.64 1.61 1.37 1.19 0.96 0.77 0.80 0.75
0.87 0.95 1.01 1.04 1.05 1.09 1.17 1.27 1.29 1.34 1.44 1.50 1.44 1.38 1.34 1.23 1.14 1.13 1.15 1.20 1.35 1.49 1.53 1.48 1.58 1.83 1.90 1.84 1.67 1.59 1.61 1.69 1.73 1.72 1.70 1.78 1.80 1.70 1.50 1.21 1.04 0.96 0.85
1.00 1.12 1.17 1.25 1.33 1.40 1.46 1.47 1.43 1.42 1.43 1.54 1.61 1.61 1.53 1.34 1.13 1.14 1.23 1.19 1.31 1.38 1.35 1.27 1.26 1.45 1.67 1.78 1.64 1.59 1.62 1.63 1.66 1.73 1.76 1.80 1.82 1.88 1.73 1.45 1.25 1.14 0.98
1.17 1.42 1.46 1.54 1.62 1.71 1.85 1.94 1.84 1.74 1.80 1.88 1.82 1.72 1.61 1.26 1.24 1.18 1.16 1.20 1.27 1.28 1.25 1.22 1.11 1.05 1.10 1.27 1.43 1.56 1.66 1.59 1.55 1.66 1.79 1.82 1.81 1.83 1.83 1.68 1.45 1.26 1.11
1.26 1.51 1.70 1.81 1.88 1.98 2.08 2.10 2.03 2.07 2.14 2.17 2.08 1.90 1.74 1.61 1.47 1.25 1.15 1.11 1.13 1.12 1.15 1.14 0.97 0.88 0.97 0.96 1.11 1.24 1.36 1.43 1.42 1.51 1.62 1.72 1.84 1.97 1.99 1.81 1.62 1.46 1.26
1.46 1.62 1.79 1.82 1.84 1.91 2.00 1.95 1.96 2.06 2.14 2.16 2.10 1.99 1.89 1.76 1.57 1.29 1.21 1.05 1.07 1.09 1.12 1.12 1.08 1.02 0.99 1.02 1.04 1.05 1.06 1.12 1.20 1.23 1.35 1.53 1.73 1.92 2.07 1.97 1.83 1.55 1.32
1.45 1.53 1.58 1.68 1.77 1.82 1.86 1.91 1.96 1.97 1.89 1.81 1.79 1.81 1.80 1.83 1.68 1.36 1.23 1.12 1.21 1.21 1.19 1.19 1.19 1.12 1.19 1.05 0.98 1.00 1.01 1.04 1.08 1.12 1.15 1.30 1.55 1.73 1.81 1.84 1.75 1.56 1.32
1.46 1.47 1.47 1.58 1.68 1.75 1.80 1.86 1.84 1.79 1.75 1.71 1.66 1.68 1.70 1.71 1.64 1.30 1.18 1.12 1.23 1.24 1.27 1.26 1.20 1.08 1.05 0.92 0.86 0.93 0.93 0.94 0.99 1.00 1.01 1.02 1.09 1.37 1.64 1.48 1.41 1.38 1.24
1.29 1.35 1.42 1.57 1.68 1.73 1.79 1.78 1.75 1.71 1.74 1.77 1.70 1.61 1.57 1.57 1.56 1.28 1.14 1.04 1.16 1.29 1.27 1.22 1.19 1.09 0.86 0.79 0.76 0.80 0.84 0.87 0.97 0.99 0.95 0.96 1.02 1.13 1.30 1.34 1.27 1.20 1.16
1.08 1.13 1.17 1.27 1.41 1.47 1.56 1.56 1.59 1.56 1.52 1.51 1.49 1.41 1.37 1.38 1.32 1.22 1.03 0.93 1.00 1.14 1.24 1.25 1.26 1.11 0.85 0.73 0.62 0.59 0.56 0.53 0.64 0.77 0.83 0.86 0.89 0.97 1.09 1.21 1.24 1.20 1.09
0.91 0.91 0.95 1.01 1.19 1.34 1.39 1.38 1.40 1.41 1.38 1.35 1.31 1.26 1.23 1.20 1.15 0.97 0.83 0.74 0.79 0.92 1.10 1.25 1.17 0.98 0.81 0.67 0.59 0.54 0.49 0.45 0.55 0.66 0.73 0.76 0.77 0.83 1.05 1.31 1.45 1.47 1.36
0.94 0.94 0.97 1.04 1.15 1.38 1.48 1.39 1.33 1.31 1.27 1.26 1.21 1.22 1.24 1.27 1.21 1.01 0.80 0.66 0.70 0.83 0.94 1.02 1.04 1.02 0.96 0.88 0.76 0.63 0.53 0.53 0.59 0.66 0.77 0.88 0.96 1.03 1.12 1.26 1.44 1.49 1.47
0.84 0.81 0.81 0.87 1.00 1.22 1.35 1.34 1.20 1.17 1.20 1.23 1.20 1.18 1.12 1.08 1.06 0.95 0.81 0.78 0.82 0.91 0.91 0.98 1.00 1.07 1.10 1.10 1.04 0.93 0.85 0.81 0.76 0.76 0.89 1.01 1.05 1.08 1.12 1.21 1.35 1.38 1.28
0.86 0.79 0.76 0.78 0.88 1.07 1.29 1.36 1.21 1.02 1.03 1.01 0.96 0.93 0.90 0.83 0.78 0.76 0.73 0.72 0.77 0.82 0.79 0.93 1.07 1.17 1.24 1.26 1.24 1.14 1.02 0.93 0.86 0.87 0.93 1.02 1.06 1.07 1.10 1.21 1.32 1.32 1.20
0.89 0.83 0.79 0.78 0.82 0.94 1.18 1.42 1.46 1.22 1.01 0.91 0.79 0.69 0.65 0.62 0.63 0.66 0.72 0.68 0.66 0.65 0.63 0.80 0.97 1.07 1.17 1.19 1.19 1.12 1.06 1.00 0.98 1.00 1.06 1.10 1.14 1.14 1.15 1.16 1.24 1.28 1.19
0.87 0.84 0.75 0.72 0.74 0.84 1.06 1.34 1.52 1.47 1.28 1.03 0.75 0.58 0.53 0.48 0.49 0.57 0.64 0.59 0.56 0.52 0.51 0.63 0.76 0.89 1.02 1.15 1.22 1.18 1.15 1.13 1.06 1.03 1.11 1.13 1.15 1.18 1.16 1.11 1.15 1.22 1.20
0.82 0.81 0.75 0.74 0.76 0.80 0.98 1.23 1.42 1.48 1.39 1.24 0.93 0.63 0.50 0.46 0.47 0.56 0.57 0.56 0.59 0.56 0.54 0.58 0.64 0.75 0.92 1.10 1.20 1.25 1.25 1.18 1.07 1.05 1.07 1.11 1.11 1.15 1.13 1.07 1.11 1.21 1.22
0.71 0.71 0.61 0.60 0.65 0.67 0.77 0.97 1.21 1.33 1.27 1.19 1.00 0.63 0.42 0.39 0.48 0.63 0.69 0.75 0.74 0.66 0.62 0.63 0.65 0.74 0.89 1.07 1.17 1.21 1.25 1.19 1.13 1.10 1.08 1.12 1.13 1.15 1.13 1.08 1.09 1.15 1.13
0.65 0.62 0.52 0.44 0.50 0.54 0.59 0.77 1.00 1.16 1.12 1.03 0.89 0.58 0.40 0.43 0.56 0.68 0.81 0.84 0.83 0.76 0.72 0.68 0.67 0.73 0.85 0.99 1.08 1.13 1.18 1.17 1.11 1.10 1.08 1.10 1.14 1.14 1.19 1.19 1.13 1.15 1.16
0.52 0.53 0.48 0.46 0.49 0.51 0.54 0.70 0.93 1.09 1.05 0.99 0.89 0.66 0.51 0.55 0.65 0.74 0.80 0.78 0.75 0.68 0.65 0.69 0.72 0.77 0.83 0.91 0.99 1.08 1.13 1.13 1.12 1.10 1.10 1.12 1.16 1.16 1.19 1.22 1.17 1.15 1.15
0.40 0.40 0.39 0.40 0.43 0.42 0.51 0.69 0.85 0.94 0.92 0.87 0.76 0.64 0.60 0.63 0.65 0.69 0.73 0.73 0.70 0.67 0.66 0.70 0.77 0.80 0.85 0.88 0.92 1.00 1.04 1.02 1.02 1.03 1.09 1.13 1.14 1.14 1.14 1.15 1.12 1.12 1.10
0.35 0.37 0.38 0.40 0.42 0.48 0.58 0.71 0.77 0.76 0.75 0.72 0.68 0.67 0.69 0.71 0.67 0.65 0.69 0.72 0.74 0.75 0.74 0.72 0.74 0.74 0.76 0.79 0.82 0.84 0.87 0.85 0.81 0.84 0.90 0.97 1.02 1.04 1.06 1.09 1.09 1.09 1.09
0.28 0.32 0.38 0.44 0.47 0.52 0.61 0.70 0.71 0.70 0.65 0.62 0.62 0.65 0.66 0.62 0.65 0.68 0.72 0.75 0.76 0.73 0.69 0.68 0.69 0.67 0.64 0.63 0.63 0.65 0.69 0.63 0.56 0.59 0.68 0.82 0.90 0.94 0.95 0.99 1.04 1.07 1.08
0.26 0.28 0.35 0.41 0.44 0.48 0.58 0.66 0.64 0.58 0.54 0.53 0.56 0.62 0.63 0.63 0.67 0.71 0.73 0.78 0.79 0.76 0.73 0.71 0.66 0.64 0.63 0.62 0.61 0.62 0.57 0.47 0.42 0.45 0.49 0.62 0.77 0.84 0.89 0.94 0.98 1.05 1.07